Location: Bergenbroeck
(50.8000°N, 4.1000°E)
Time: 23:46:07
(UTC+00:00)

Daily predictions for brighter satellites

Satellite Brightness Start Highest point End
(mag) Time Altitude Azimuth Time Altitude Azimuth Time Altitude Azimuth
Cosmos 1602 Rocket 3.5 16:54:33 10° S 16:58:54 79° E 17:03:16 10° NNE
SL-16 R/B 2.4 16:54:00 10° NNW 16:59:35 53° NE 17:05:07 10° SE
Envisat 3.1 16:54:38 10° SE 16:59:35 56° ENE 17:04:34 10° N
Cosmos 1271 Rocket 3.8 17:00:45 10° SSW 17:04:23 47° WNW 17:08:05 10° N
Meteor 2-10 Rocket 3.8 16:59:40 10° N 17:04:44 43° ENE 17:09:37 10° SE
USA 267 3.4 17:01:52 10° ENE 17:08:23 66° SE 17:14:52 10° SW
Cosmos 2082 4.5 17:05:26 10° SSE 17:10:22 32° ESE 17:15:20 10° NE
Cosmos 2219 3.2 17:04:56 10° SSW 17:10:32 74° ESE 17:16:12 10° NNE
Cosmos 1953 Rocket 4.3 17:08:43 10° SSE 17:12:42 32° E 17:16:42 10° NNE
COSMO-SKYMED 1 3.5 17:09:21 10° NE 17:13:07 27° E 17:16:50 10° SSE
COBE Rocket 4.5 17:10:44 10° N 17:15:53 67° WNW 17:21:01 10° SSW
Cosmos 2297 Rocket 2.3 17:10:33 10° SSW 17:16:06 60° ESE 17:21:41 10° NE
Cosmos 1758 Rocket 3.6 17:12:36 10° S 17:16:48 55° E 17:21:02 10° NNE
PSLV R/B 4.0 17:14:23 10° NNE 17:18:29 87° WNW 17:22:35 10° SSW
Cosmos 1626 Rocket 4.4 17:14:54 10° SSW 17:19:08 53° WNW 17:23:23 10° N
Cosmos 2154 Rocket 4.2 17:16:49 10° SSW 17:23:05 78° W 17:29:21 10° N
Starlink AR 2.8 17:21:20 10° WNW 17:23:57 49° N 17:25:49 16° ENE
H-2A R/B 3.8 17:20:45 10° S 17:24:31 50° W 17:28:21 10° NNW
Cosmos 2227 Rocket 2.2 17:23:42 10° SSW 17:29:18 68° ESE 17:34:56 10° NNE
ISS -3.2 17:26:14 10° SW 17:29:30 48° SSE 17:31:56 16° E
Starlink T 3.2 17:27:49 10° WNW 17:30:58 55° N 17:33:11 18° ENE
NOAA 11 4.5 17:27:03 10° SE 17:32:13 44° ENE 17:37:23 10° N
Starlink N 3.2 17:29:43 10° WNW 17:32:53 55° N 17:35:01 19° ENE
CZ-4 R/B 1.6 17:29:30 10° SE 17:33:29 50° ENE 17:37:32 10° N
YAOGAN 6 2.5 17:31:04 10° SSE 17:34:44 79° ENE 17:38:23 10° N
ATLAS CENTAUR R/B 1.1 17:30:37 10° NW 17:34:45 73° NE 17:38:33 10° SE
Starlink Q 3.2 17:31:53 10° WNW 17:35:02 55° N 17:37:05 19° ENE
Shenzhou-11 Module 4.2 17:34:57 10° SW 17:36:38 15° S 17:38:18 10° SE
Starlink P 3.2 17:33:53 10° WNW 17:37:02 56° N 17:39:00 20° ENE
Cosmos 1328 4.1 17:34:32 10° SSE 17:38:21 43° E 17:42:11 10° NNE
Starlink U 3.2 17:35:52 10° WNW 17:39:02 56° N 17:40:55 21° ENE
Cosmos 1825 Rocket 3.4 17:35:12 10° S 17:39:32 81° E 17:43:53 10° NNE
Meteor 1-21 Rocket 4.2 17:34:15 10° S 17:39:53 85° E 17:45:42 10° NNE
Starlink B 3.2 17:37:53 10° WNW 17:41:03 56° N 17:42:51 22° ENE
USA 116 4.5 17:40:55 20° E 17:41:10 20° E 17:43:34 10° SE
Cosmos 2366 rocket 4.1 17:36:33 10° SSE 17:42:35 56° E 17:48:44 10° NNE
Cosmos 1943 3.9 17:37:54 10° NNW 17:42:58 32° NE 17:47:06 14° ESE
Ariane Rocket 3.9 17:38:59 10° ESE 17:43:13 27° ENE 17:47:29 10° N
USA 234 3.9 17:38:26 10° SE 17:44:52 58° SW 17:51:19 10° WNW
FengYun 1-2 T 4.3 17:39:32 10° SSE 17:45:12 89° ENE 17:50:55 10° NNW
Cosmos 1626 4.4 17:45:48 10° SW 17:48:54 25° WNW 17:52:02 10° NNW
Cosmos 2221 3.2 17:46:12 10° N 17:50:03 31° ENE 17:53:55 10° SE
Starlink D 3.1 17:51:37 10° WNW 17:54:49 59° N 17:56:05 32° ENE
Okean-O 3.4 17:51:38 10° S 17:55:59 56° WSW 18:00:24 10° NNW
Cosmos-2242 3.8 17:52:28 10° NNW 17:56:43 55° W 18:00:53 10° S
Starlink S 3.1 17:53:43 10° WNW 17:56:55 59° N 17:58:07 33° ENE
Cosmos 1356 Rocket 3.3 17:54:05 10° N 17:58:08 65° ENE 18:02:12 10° SSE
CSL-04 Debris 4.1 17:53:19 10° SSE 17:58:40 71° ENE 18:04:04 10° NNW
ADEOS Rocket 3.9 17:52:41 10° NNE 17:58:45 34° E 18:05:18 10° SSE
Starlink C 3.1 17:55:45 10° WNW 17:58:58 60° N 18:00:05 35° ENE
Cosmos 44 3.0 17:54:41 10° SW 17:59:14 83° SE 18:02:12 20° NE
Cosmos 614 Rocket 4.5 17:54:38 10° NNW 17:59:31 38° NE 18:03:06 17° ESE
ERBS 2.9 17:57:02 10° W 18:00:16 46° NNW 18:01:43 27° NE
Starlink E 3.1 17:57:53 10° WNW 18:01:05 61° N 18:02:07 37° ENE
SKYMED 2 3.5 17:57:01 10° NNE 18:01:23 78° ESE 18:05:44 10° S
ATLAS 5 CENTAUR R/B 3.4 17:58:56 10° NW 18:02:49 52° NE 18:15:54 10° ESE
Starlink J 3.1 18:00:00 10° WNW 18:03:12 61° N 18:04:09 39° ENE
Starlink AS 2.8 18:01:29 10° WNW 18:04:24 60° N 18:04:58 47° ENE
Starlink BA 2.8 18:01:42 10° WNW 18:04:36 60° N 18:05:10 47° ENE
Starlink AU 2.8 18:01:55 10° WNW 18:04:49 60° N 18:05:23 48° ENE
Starlink AT 2.8 18:02:09 10° WNW 18:05:04 60° N 18:05:36 48° ENE
Starlink BB 2.8 18:02:23 10° WNW 18:05:18 60° N 18:05:49 48° ENE
Starlink V 3.0 18:02:05 10° WNW 18:05:18 62° N 18:06:10 42° ENE
Starlink BC 2.8 18:02:35 10° WNW 18:05:30 60° N 18:06:01 49° ENE
Starlink BK 2.8 18:02:49 10° WNW 18:05:43 60° N 18:06:14 49° ENE
Starlink AY 2.8 18:03:03 10° WNW 18:05:58 60° N 18:06:28 49° ENE
Cosmos 1703 3.2 18:02:09 10° S 18:06:08 83° E 18:10:08 10° NNE
Starlink AW 2.8 18:03:17 10° WNW 18:06:11 60° N 18:06:41 50° ENE
Starlink BJ 2.8 18:03:30 10° WNW 18:06:25 61° N 18:06:54 50° ENE
Starlink AV 2.8 18:03:44 10° WNW 18:06:39 61° N 18:07:08 50° ENE
Starlink BD 2.8 18:03:57 10° WNW 18:06:52 61° N 18:07:20 50° ENE
Starlink BE 2.8 18:04:10 10° WNW 18:07:06 61° N 18:07:35 50° ENE
Starlink BM 2.8 18:04:25 10° WNW 18:07:20 61° N 18:07:47 51° NE
Starlink H 3.0 18:04:12 10° WNW 18:07:26 63° N 18:08:13 44° ENE
Starlink AX 2.8 18:04:39 10° WNW 18:07:34 61° NNE 18:08:00 52° NE
Starlink BH 2.8 18:04:51 10° WNW 18:07:45 61° N 18:08:12 52° NE
Starlink AZ 2.8 18:05:04 10° WNW 18:07:59 61° N 18:08:24 52° NE
Starlink BG 2.8 18:05:17 10° WNW 18:08:12 61° N 18:08:37 53° NE
Starlink BF 2.7 18:05:30 10° WNW 18:08:25 61° N 18:08:49 53° NE
Starlink BL 2.8 18:05:42 10° WNW 18:08:39 62° N 18:09:05 53° NE
Starlink AH 2.7 18:05:59 10° WNW 18:08:53 62° N 18:09:17 54° NE
Starlink AQ 2.8 18:06:02 10° WNW 18:08:58 62° N 18:09:22 53° NE
Cosmos 1727 Rocket 3.9 18:02:46 10° N 18:09:00 80° E 18:15:11 10° SSE
Starlink AC 2.7 18:06:12 10° WNW 18:09:08 62° N 18:09:30 54° NE
Starlink X 2.7 18:06:25 10° WNW 18:09:20 62° N 18:09:42 54° NE
Starlink AE 2.8 18:06:36 10° WNW 18:09:33 62° N 18:09:57 54° NE
Starlink F 3.0 18:06:20 10° WNW 18:09:33 64° N 18:10:16 47° ENE
Starlink Z 2.7 18:06:52 10° WNW 18:09:47 62° NNE 18:10:08 55° NE
Starlink AK 2.7 18:07:05 10° WNW 18:10:00 62° N 18:10:21 55° NE
Starlink AL 2.7 18:07:20 10° WNW 18:10:15 62° N 18:10:35 56° NE
Starlink AD 2.7 18:07:34 10° WNW 18:10:29 62° N 18:10:48 56° NE
Starlink Y 2.7 18:08:00 10° WNW 18:10:55 62° NNE 18:11:13 57° NE
Starlink AG 2.7 18:08:13 10° WNW 18:11:07 62° N 18:11:26 57° NE
Starlink W 2.7 18:08:24 10° WNW 18:11:21 63° NNE 18:11:40 57° NE
Starlink AJ 2.7 18:08:39 10° WNW 18:11:34 63° N 18:11:51 58° NE
Starlink G 3.0 18:08:27 10° WNW 18:11:41 64° N 18:12:18 50° ENE
Starlink AM 2.7 18:09:08 10° WNW 18:12:03 63° N 18:12:19 59° NE
Starlink AP 2.7 18:09:20 10° WNW 18:12:15 63° NNE 18:12:30 59° NE
Starlink AA 2.7 18:09:35 10° WNW 18:12:29 63° N 18:12:45 59° NE
Starlink AF 2.7 18:09:47 10° WNW 18:12:42 63° NNE 18:12:57 59° NE
Starlink AB 2.7 18:10:01 10° WNW 18:12:57 63° NNE 18:13:10 60° NE
Starlink AN 2.7 18:10:16 10° WNW 18:13:11 63° NNE 18:13:24 60° NE
Starlink L 3.0 18:10:34 10° WNW 18:13:48 65° N 18:14:20 53° ENE
Starlink A 2.9 18:12:42 10° WNW 18:15:57 66° NNE 18:16:24 56° ENE
SL-8 Rocket 4.2 18:09:46 10° SSW 18:16:04 74° WNW 18:22:21 10° N
Starlink R 2.9 18:14:51 10° WNW 18:18:06 67° NNE 18:18:27 60° NE
Cosmos 1455 3.8 18:14:46 10° NNW 18:18:18 37° W 18:21:48 10° SSW
YAOGAN 1 2.7 18:14:39 10° S 18:18:58 75° WSW 18:23:20 10° NNW
CSL-04 Rocket 3.8 18:13:38 10° SSE 18:19:10 84° WSW 18:24:47 10° NNW
ATLAS 5 CENTAUR R/B 3.7 18:15:42 10° NW 18:19:21 21° N 18:21:37 16° NNE
Starlink K 2.9 18:16:57 10° WNW 18:20:13 68° NNE 18:20:30 63° NE
Starlink M 2.9 18:19:04 10° WNW 18:22:19 69° NNE 18:22:31 66° NE
Cosmos 2251 Rocket 4.4 18:17:59 10° NNW 18:23:08 52° WSW 18:28:18 10° S
Cosmos 1140 Rocket 3.9 18:18:58 10° NNW 18:23:55 40° NE 18:24:58 36° E
H-2A R/B 2.5 18:27:11 36° ENE 18:27:16 36° ENE 18:31:58 10° N
Cosmos 1939 Rocket 2.9 18:24:39 10° S 18:28:35 76° WSW 18:32:38 10° NNW
Cosmos 1869 4.3 18:24:57 10° N 18:27:20 30° NNE 18:27:20 30° NNE
NOSS 3-3 (A) 4.5 18:24:57 10° NW 18:32:08 63° NE 18:36:30 29° ESE
NOSS 3-3 (C) 4.5 18:25:03 10° NW 18:32:14 63° NE 18:36:33 29° ESE
CZ-2D R/B 3.5 18:29:04 10° S 18:32:53 67° WSW 18:36:46 10° NNW
SWAS 4.3 18:31:04 10° SSW 18:35:24 86° ESE 18:36:42 45° NE
Cosmos 44 Rocket 3.6 18:36:57 10° SSW 18:41:16 45° SE 18:41:16 45° SE
SL-16 R/B 4.0 18:38:31 10° NW 18:43:28 32° WSW 18:48:23 10° SSW
Cosmos 1954 Rocket 4.5 18:39:49 10° NNW 18:44:32 41° NE 18:44:32 41° NE
COSMO-SKYMED 1 4.0 18:45:20 10° N 18:49:22 38° WNW 18:53:23 10° SW
Cosmos 1821 Rocket 3.9 18:43:35 10° S 18:49:54 71° E 18:56:10 10° NNE
Cosmos 2227 4.3 18:44:58 10° S 18:50:31 53° ESE 18:50:52 52° E
USA 267 3.5 18:48:26 33° NE 18:51:26 64° NNW 18:57:53 10° W
Cosmos 1842 Rocket 4.4 18:47:45 10° NNW 18:52:07 52° W 18:56:28 10° S
Cosmos 2082 4.4 18:48:47 10° SW 18:54:15 52° NW 18:58:17 18° NNE
SPOT 3 Rocket 4.4 18:58:16 34° NNE 18:58:16 34° NNE 19:01:30 10° N
Cosmos 1603 3.8 18:51:06 10° NNW 18:56:48 75° WSW 19:00:32 22° SSE
Cosmos 1190 Rocket 3.9 18:53:00 10° NNW 18:58:22 81° ENE 18:59:35 54° SE
Cosmos 407 Rocket 3.4 18:53:11 10° NNW 18:58:32 89° WSW 19:00:25 41° SSE
SL-8 R/B 3.7 18:54:16 10° WSW 18:59:03 67° S 18:59:12 66° SSE
Cosmos 2084 4.3 18:55:12 10° NW 18:58:28 39° N 18:58:28 39° N
Cosmos 2297 Rocket 3.7 18:55:29 10° WSW 19:00:31 32° NW 19:04:53 13° NNE
ARGOS 3.2 19:05:26 60° NE 19:05:26 60° NE 19:10:16 10° N
ISS -2.0 19:02:52 10° W 19:04:54 34° W 19:04:54 34° W
Cosmos 2263 Rocket 2.7 19:02:23 10° S 19:06:18 42° SSE 19:06:18 42° SSE
CZ-4 R/B 4.2 19:05:46 10° SW 19:08:47 19° W 19:11:51 10° NW
Cosmos 676 Rocket 4.2 19:05:14 10° NNW 19:09:49 58° NNE 19:09:49 58° NNE
ATLAS CENTAUR R/B 4.1 19:10:42 10° WNW 19:13:05 16° WSW 19:15:22 10° SSW
Cosmos 2123 Rocket 3.9 19:07:05 10° N 19:13:27 82° E 19:16:36 32° SSE
NOSS 3-2 (A) 4.4 19:08:08 10° S 19:11:19 30° SSE 19:11:19 30° SSE
Cosmos 2227 Rocket 3.9 19:08:58 10° WSW 19:13:52 29° NW 19:17:45 14° N
SL-24 R/B 4.5 19:15:15 73° N 19:15:15 73° N 19:20:06 10° NNW
Cosmos 967 Rocket 4.4 19:11:13 10° NW 19:17:46 75° NE 19:18:17 71° E
Ariane Rocket 3.7 19:16:58 10° S 19:21:55 53° W 19:26:55 10° NNW
CZ-2C R/B 3.4 19:22:58 63° N 19:22:58 63° N 19:27:49 10° NNW
Cosmos 1934 Rocket 3.9 19:17:08 10° S 19:29:06 11° NNE 19:29:16 10° NNE
Cosmos 1943 3.6 19:21:48 10° NW 19:27:21 58° WSW 19:29:00 42° SSW
Cosmos 2221 4.3 19:23:50 10° NNW 19:27:34 30° W 19:31:19 10° SSW
ADEOS Rocket 3.7 19:38:00 10° N 19:44:31 60° WNW 19:51:41 10° SW
USA 238 DEB 4.1 19:46:40 10° SW 19:51:28 50° SSW 19:51:28 50° SSW
USA 238 4.1 19:46:48 10° SW 19:51:31 49° SSW 19:51:31 49° SSW
ATLAS 5 CENTAUR R/B 4.1 20:01:09 10° NW 20:03:10 20° NNW 20:03:10 20° NNW
H-2A R/B 3.5 20:07:48 34° WNW 20:07:48 34° WNW 20:11:29 10° NNW
USA 267 4.2 20:35:47 42° NW 20:35:47 42° NW 20:40:19 10° WNW
